Location: Central Springs Elementary School at Manly
(43.2859°N, 93.1959°W)
Time: 07:01:12
(UTC+00:00)

Envisat - Visible Passes

Search period start: 12 October 2024 00:00
Search period end: 22 October 2024 00:00
Orbit: 762 x 764 km, 98.3° (Epoch: 11 October)

Date Brightness Start Highest point End Pass type
(mag) Time Alt. Az. Time Alt. Az. Time Alt. Az.
12 Oct 5.2 08:48:57 10° NNE 08:50:56 22° NE 08:50:56 22° NE visible
12 Oct 4.3 10:28:17 10° N 10:31:04 23° NW 10:31:04 23° NW visible
13 Oct 5.9 08:12:29 10° NE 08:12:53 11° NE 08:12:53 11° NE visible
13 Oct 4.2 09:50:16 10° N 09:53:01 31° N 09:53:01 31° N visible
14 Oct 4.8 09:12:43 10° NNE 09:14:57 26° NNE 09:14:57 26° NNE visible
14 Oct 4.7 10:53:01 10° NNW 10:55:05 16° NW 10:55:05 16° NW visible
15 Oct 5.6 08:35:41 10° NE 08:36:53 16° NE 08:36:53 16° NE visible
15 Oct 4.4 10:14:32 10° N 10:17:01 25° NNW 10:17:01 25° NNW visible
16 Oct 4.6 09:36:41 10° N 09:38:57 27° N 09:38:57 27° N visible
16 Oct 5.0 11:18:56 10° NW 11:19:05 10° NW 11:19:05 10° NW visible
17 Oct 5.2 08:59:18 10° NNE 09:00:52 20° NNE 09:00:52 20° NNE visible
17 Oct 4.7 10:39:02 10° NNW 10:41:01 18° NW 10:41:01 18° NW visible
18 Oct 5.9 08:22:31 10° NE 08:22:48 11° NE 08:22:48 11° NE visible
18 Oct 4.6 10:00:50 10° N 10:02:56 24° N 10:02:56 24° N visible
19 Oct 5.0 09:23:08 10° NNE 09:24:51 22° NNE 09:24:51 22° NNE visible
19 Oct 5.0 11:04:01 10° NNW 11:04:59 12° NW 11:04:59 12° NW visible
20 Oct 5.6 08:45:55 10° NNE 08:46:46 14° NE 08:46:46 14° NE visible
20 Oct 4.7 10:25:10 10° N 10:26:55 19° NNW 10:26:55 19° NNW visible
21 Oct 4.8 09:47:10 10° N 09:48:50 21° N 09:48:50 21° N visible
